Tracking 28514 objects as of 24-Feb-2024
HD Live streaming from Space Station
objects crossing your sky now

STARLINK-1926

Track STARLINK-1926 now!
10-day predictions
STARLINK-1926 is classified as:


NORAD ID: 46757
Int'l Code: 2020-074U
Perigee: 553.3 km
Apogee: 555.4 km
Inclination: 53.1 °
Period: 95.6 minutes
Semi major axis: 6925 km
RCS: Unknown
Launch date: October 24, 2020
Source: United States (US)
Launch site: AIR FORCE EASTERN TEST RANGE (AFETR)
Your satellite tracking list
Your tracking list is empty




NASA's NSSDC Master Catalog

Two Line Element Set (TLE):
1 46757U 20074U   24054.31407036  .00001127  00000-0  94542-4 0  9990
2 46757  53.0550  72.9750 0001525  91.0638 269.0526 15.06403411184254
Source of the keplerian elements: AFSPC